Location: *
(12.5665°N, 8.3471°E)
Time: 13:30:52
(UTC+00:00)

CZ-3 R/B - Pass Details

Date: 23 September 2019
Orbit: 335 x 10285 km, 28.4° (Epoch: 20 October)

Event Time Altitude Azimuth Distance (km) Brightness Sun altitude
Rises 04:05:08 0° 294° (WNW) 12,568 6.7 -18.0°
Reaches altitude 10° 04:19:09 10° 297° (WNW) 9,522 6.0 -14.6°
Maximum altitude 04:45:29 71° 19° (NNE) 1,912 3.1 -8.2°
Drops below altitude 10° 04:51:51 10° 104° (ESE) 2,692 5.3 -6.7°
Sets 04:53:27 0° 107° (ESE) 3,272 5.9 -6.3°
